Wind_Speed
38 37 37 37 36 36 35 35 35 35 35 35 35 36 36 36 36 37 38 38 39 40 41 41 42 43 43 44 46 47 48 49 49 47 48 48 50 51 52 52 52 52 51
38 38 37 37 37 36 35 36 35 35 36 36 36 36 37 37 37 38 39 40 40 41 42 42 42 43 44 45 46 47 48 49 49 48 48 48 50 51 52 52 51 50 49
38 38 38 37 37 36 36 36 36 36 36 36 36 36 37 38 38 39 40 41 41 42 42 42 43 44 45 46 47 48 48 48 49 48 48 49 50 51 51 50 48 47 46
38 38 38 38 37 37 37 37 37 37 36 37 37 37 38 39 39 40 41 41 41 42 42 42 43 44 45 46 47 48 48 48 48 48 48 49 49 49 48 46 45 44 43
38 39 39 39 38 38 38 38 38 37 37 37 37 38 39 39 40 40 41 41 42 41 41 42 43 44 45 46 46 47 47 47 47 48 48 48 48 46 45 44 43 40 39
38 39 39 39 39 39 38 39 38 38 38 38 38 39 39 39 40 41 41 41 41 41 42 43 43 44 45 45 45 46 47 47 47 47 47 47 45 43 42 42 40 37 35
38 38 39 39 39 39 38 38 39 39 39 38 38 39 39 40 40 41 41 41 41 42 42 43 43 44 44 45 45 45 46 46 46 46 46 44 42 41 40 39 37 35 33
38 38 38 38 38 39 38 38 38 38 38 39 39 39 40 40 41 41 41 41 42 42 42 43 43 43 43 44 44 44 45 45 44 44 42 41 40 40 39 37 34 32 32
37 37 38 38 38 38 38 38 38 38 38 39 39 39 40 41 41 41 41 41 41 41 42 42 42 42 42 42 43 43 43 42 42 41 39 39 39 38 37 34 32 31 30
36 37 37 37 38 38 38 38 38 38 38 38 39 39 39 40 41 41 41 41 41 41 41 41 41 41 41 41 41 41 41 40 39 38 38 38 37 36 33 31 30 29 29
35 35 36 37 37 38 38 38 38 38 38 38 38 39 39 39 40 40 40 40 40 39 40 40 40 40 40 39 39 38 37 36 36 36 35 35 34 32 30 28 29 28 27
33 34 35 36 36 36 37 37 37 37 38 38 38 38 38 39 39 39 39 38 38 37 37 37 37 38 37 36 35 35 34 35 34 33 33 31 30 28 27 27 27 26 25
33 33 33 35 35 36 36 36 36 36 36 37 37 37 38 38 38 38 37 36 36 35 35 34 34 35 34 34 34 33 34 34 33 32 30 29 27 26 25 25 25 24 23
32 32 33 33 34 35 35 35 35 35 35 36 36 37 37 37 36 36 35 34 34 33 32 32 32 32 32 32 32 32 32 32 31 30 29 27 25 24 23 23 22 23 22
32 32 32 32 33 33 34 34 34 35 35 35 35 35 35 35 34 33 32 32 31 31 31 31 30 30 30 31 31 30 30 30 29 28 26 24 22 22 21 21 22 22 21
32 32 32 32 32 32 33 33 33 33 33 34 34 33 33 32 31 31 30 30 29 29 29 29 28 28 29 29 29 28 28 28 28 26 23 21 20 20 20 21 21 21 20
31 31 32 31 31 31 31 31 31 31 32 32 31 31 30 29 29 28 28 27 27 27 27 27 27 27 27 28 27 27 27 26 25 22 20 20 20 20 20 20 20 20 19
30 30 30 30 30 30 30 29 29 29 28 28 28 28 28 27 27 26 26 25 25 25 25 25 25 26 25 25 25 25 25 24 22 20 20 19 19 19 19 19 19 18 16
28 28 28 28 28 28 28 27 27 26 26 25 26 26 25 25 24 24 23 23 23 24 24 24 24 24 24 24 24 24 23 22 20 19 18 18 18 18 18 18 17 16 15
26 26 26 26 27 27 26 26 25 24 24 23 23 23 22 22 22 22 22 22 22 23 23 23 23 22 23 24 23 22 21 20 19 18 17 17 17 17 16 16 16 15 14
25 25 25 26 26 25 25 25 24 24 23 22 21 20 20 20 20 21 21 21 21 22 22 22 21 22 22 22 21 21 20 19 18 17 17 16 16 16 15 15 15 15 14
24 24 24 23 24 24 24 23 23 22 22 21 20 20 20 20 20 21 20 21 21 21 21 20 20 21 21 21 19 19 18 18 17 16 16 16 15 15 15 14 14 13 12
23 22 22 22 22 22 22 22 21 21 20 20 20 20 20 20 20 20 20 20 20 19 19 19 19 20 20 19 18 18 18 17 17 16 16 15 14 14 14 14 13 12 11
22 21 21 21 21 21 20 20 20 20 20 20 21 21 20 20 20 20 20 20 20 19 19 19 18 18 18 18 17 17 17 17 16 15 14 14 14 14 13 13 12 11 10
20 20 20 20 20 20 20 20 19 20 20 20 20 20 20 20 20 20 20 19 19 18 18 18 18 18 18 18 17 17 16 16 16 15 13 13 13 13 12 11 10 9 8
19 19 18 18 19 19 19 19 19 19 19 20 20 20 20 20 19 19 19 19 18 18 18 17 17 18 18 17 17 16 16 15 15 14 13 13 12 11 10 10 9 8 6
Wind_Direction
241 243 245 247 249 250 253 255 257 260 263 265 268 271 273 275 278 280 283 285 287 288 288 289 290 292 293 294 296 297 298 298 298 297 297 298 299 299 299 298 299 299 300
239 242 245 247 249 251 253 255 258 261 263 265 268 271 273 276 279 281 283 285 287 288 288 290 291 292 294 296 297 298 299 299 299 298 299 299 300 300 300 299 299 299 300
239 242 245 248 250 251 254 256 259 261 264 266 268 271 274 277 279 281 284 286 287 288 289 290 291 293 295 296 297 299 299 299 299 300 300 300 300 300 300 299 299 300 300
241 243 245 248 250 252 254 257 260 262 264 266 269 272 275 278 280 283 285 286 288 289 290 291 292 294 295 296 298 299 300 300 300 301 302 302 301 301 300 300 299 299 299
242 244 246 248 250 252 255 258 260 262 264 267 270 273 276 279 281 283 285 287 288 289 290 292 294 295 296 297 299 300 300 300 301 302 302 302 302 301 301 301 300 300 299
243 244 246 248 250 252 255 258 261 263 265 267 270 273 276 279 282 284 286 287 288 289 291 293 295 296 297 298 299 300 301 302 302 303 303 302 303 302 302 303 302 301 299
244 245 247 249 251 253 255 259 261 264 266 268 271 273 276 278 282 284 286 287 289 290 292 294 296 297 298 299 300 300 302 303 303 304 304 303 303 303 304 304 303 302 302
245 246 248 250 252 254 256 259 262 265 267 270 272 274 277 279 282 284 286 287 289 291 293 294 296 298 298 299 300 301 303 303 303 304 303 303 304 304 304 305 304 303 303
247 248 249 250 253 255 256 259 262 265 268 271 273 276 278 279 282 284 286 288 289 291 293 295 297 298 298 299 300 302 303 304 304 304 303 303 303 304 304 304 304 303 304
248 249 250 251 252 254 256 258 262 265 268 271 273 276 278 280 281 284 287 288 289 291 293 295 297 297 298 299 300 302 304 305 306 305 304 303 304 304 304 304 305 305 305
248 249 250 252 253 254 256 258 262 265 268 270 273 276 278 279 282 284 287 289 290 291 294 295 296 297 298 300 301 304 305 307 307 306 305 305 306 306 305 305 307 308 307
249 250 251 252 254 255 257 259 262 265 268 271 274 276 278 280 282 285 287 289 291 293 294 295 296 298 299 301 303 305 306 308 308 308 307 308 307 306 304 305 308 308 308
250 251 253 254 255 256 258 260 263 265 268 271 274 276 278 281 283 284 286 288 290 293 294 296 297 299 300 301 304 306 306 307 308 308 308 308 307 306 305 305 308 309 307
250 252 253 255 257 258 260 262 264 266 269 271 274 276 278 280 282 283 285 287 288 291 293 295 297 299 300 303 305 307 307 308 309 309 308 307 307 307 307 306 307 309 309
251 253 256 257 259 260 261 264 266 267 268 270 272 274 277 278 279 282 284 286 287 289 291 294 296 299 301 305 306 307 309 310 312 312 310 309 308 308 308 310 311 311 309
253 255 257 259 260 261 262 264 266 267 268 269 270 272 274 275 277 280 283 284 286 288 291 294 296 298 302 305 306 306 308 310 312 312 309 308 309 309 310 312 314 314 313
253 255 256 258 260 262 263 264 265 266 268 269 271 272 273 275 278 280 281 283 285 287 290 293 297 299 302 305 305 306 308 310 311 309 307 308 309 311 312 313 314 315 314
253 254 255 257 259 261 263 263 264 265 266 268 270 271 273 275 277 278 280 281 283 286 289 293 297 300 303 305 306 307 308 309 309 307 306 308 310 312 314 316 317 317 317
252 254 255 257 258 260 262 262 263 263 265 267 269 271 272 273 275 277 279 280 283 286 290 294 297 300 304 307 307 307 308 309 308 305 307 307 310 313 315 317 319 320 320
252 253 253 255 258 260 261 261 262 263 265 267 268 269 269 271 273 275 276 279 283 287 291 294 297 300 303 306 306 306 306 307 307 305 306 307 309 313 315 317 319 320 321
251 252 253 254 256 257 258 259 261 263 265 266 267 266 268 270 273 275 277 280 285 289 291 293 297 299 302 304 304 305 306 307 306 303 304 305 308 312 314 316 318 320 321
251 252 253 253 254 255 257 259 261 263 263 264 263 264 268 271 275 277 278 282 286 289 291 293 297 300 301 303 304 305 306 305 303 299 300 302 306 310 311 314 316 319 321
248 249 251 252 253 255 258 260 261 262 262 260 260 265 269 273 276 277 279 283 286 288 291 294 296 299 301 302 302 303 304 305 303 301 300 300 302 306 310 312 314 315 317
244 246 247 250 253 254 256 259 259 259 259 261 263 267 270 273 275 277 279 281 284 287 291 293 295 297 300 302 302 302 303 303 303 301 299 297 299 302 306 310 312 313 313
240 242 244 247 250 253 256 258 258 258 260 262 265 267 270 273 275 277 279 281 283 286 290 292 294 295 298 299 299 300 302 303 302 300 297 297 298 299 301 305 309 310 308
237 239 242 245 249 253 255 255 256 257 260 263 265 267 270 272 274 277 279 280 282 284 288 291 292 294 296 296 296 298 302 303 300 295 294 295 296 296 298 303 305 302 298
Height
5682 5685 5688 5690 5692 5695 5696 5698 5699 5699 5700 5700 5700 5700 5699 5698 5697 5695 5693 5691 5689 5686 5683 5680 5676 5673 5669 5665 5660 5655 5650 5645 5641 5638 5633 5627 5621 5616 5610 5604 5597 5591 5586
5673 5676 5679 5681 5684 5686 5688 5689 5690 5691 5691 5691 5691 5691 5690 5689 5688 5686 5684 5682 5679 5676 5673 5670 5666 5662 5658 5654 5649 5644 5638 5633 5627 5624 5621 5615 5609 5603 5597 5591 5585 5579 5573
5664 5667 5670 5672 5675 5677 5679 5680 5681 5682 5682 5682 5682 5682 5681 5680 5679 5677 5675 5672 5669 5666 5663 5660 5656 5652 5648 5643 5638 5633 5627 5621 5616 5611 5607 5603 5597 5591 5584 5579 5572 5567 5560
5655 5658 5661 5664 5666 5668 5669 5671 5672 5673 5673 5673 5673 5673 5672 5671 5669 5667 5665 5662 5659 5656 5653 5649 5645 5641 5637 5632 5627 5622 5616 5610 5605 5599 5595 5590 5584 5578 5572 5567 5562 5556 5550
5646 5649 5652 5654 5657 5659 5660 5661 5662 5663 5664 5664 5664 5663 5662 5661 5659 5657 5655 5652 5649 5646 5643 5639 5635 5630 5625 5621 5616 5611 5605 5600 5594 5589 5584 5578 5572 5566 5561 5556 5550 5545 5540
5637 5640 5643 5645 5647 5649 5651 5652 5653 5654 5654 5654 5654 5654 5653 5651 5650 5647 5645 5642 5639 5636 5633 5629 5625 5620 5615 5611 5606 5600 5595 5589 5583 5578 5573 5567 5561 5556 5550 5545 5540 5535 5532
5628 5631 5633 5636 5638 5640 5641 5643 5644 5644 5645 5645 5644 5644 5643 5641 5640 5637 5635 5632 5629 5626 5623 5619 5615 5610 5605 5601 5596 5590 5585 5578 5573 5567 5562 5556 5551 5546 5541 5537 5531 5526 5522
5618 5621 5624 5626 5628 5630 5632 5633 5634 5635 5635 5635 5634 5634 5633 5631 5630 5627 5625 5622 5619 5616 5613 5609 5605 5600 5595 5591 5586 5581 5575 5569 5563 5557 5552 5547 5541 5536 5532 5528 5523 5519 5515
5609 5612 5614 5617 5619 5620 5622 5623 5624 5625 5625 5625 5625 5624 5623 5621 5619 5617 5615 5612 5609 5606 5602 5598 5594 5590 5586 5581 5576 5571 5566 5560 5554 5548 5543 5537 5532 5528 5524 5520 5516 5512 5509
5600 5602 5605 5607 5609 5611 5612 5613 5614 5615 5615 5615 5615 5614 5613 5611 5609 5607 5605 5602 5600 5596 5593 5589 5584 5580 5576 5570 5566 5561 5556 5551 5546 5540 5535 5529 5524 5520 5516 5512 5508 5504 5501
5590 5593 5595 5597 5599 5600 5602 5603 5604 5605 5605 5605 5605 5604 5602 5601 5599 5597 5595 5592 5589 5586 5583 5579 5575 5571 5566 5561 5557 5552 5547 5542 5537 5532 5527 5522 5517 5513 5509 5505 5501 5498 5494
5581 5584 5586 5587 5589 5591 5592 5593 5594 5595 5595 5595 5595 5594 5592 5591 5589 5587 5585 5582 5579 5576 5573 5569 5565 5561 5557 5553 5549 5544 5540 5535 5530 5525 5520 5515 5511 5507 5503 5499 5495 5492 5488
5572 5574 5576 5578 5579 5581 5582 5584 5584 5585 5585 5585 5585 5584 5582 5581 5579 5577 5575 5573 5570 5567 5564 5560 5557 5553 5549 5545 5541 5537 5532 5528 5523 5519 5514 5509 5505 5501 5497 5494 5490 5487 5483
5563 5565 5567 5568 5570 5571 5572 5574 5574 5575 5575 5575 5574 5574 5573 5571 5570 5568 5566 5563 5561 5558 5555 5552 5549 5545 5542 5538 5534 5530 5525 5521 5516 5512 5508 5503 5499 5496 5492 5489 5486 5483 5479
5554 5556 5558 5559 5560 5562 5563 5564 5564 5565 5565 5565 5564 5563 5563 5562 5560 5558 5556 5555 5552 5550 5547 5545 5542 5539 5535 5532 5527 5523 5519 5515 5510 5506 5502 5498 5495 5491 5488 5485 5482 5478 5475
5546 5547 5549 5550 5552 5552 5553 5554 5554 5554 5554 5554 5553 5553 5552 5552 5551 5549 5548 5546 5544 5542 5540 5537 5535 5532 5529 5525 5521 5517 5513 5509 5505 5501 5497 5494 5491 5487 5484 5481 5477 5474 5471
5537 5539 5540 5541 5542 5543 5544 5544 5545 5545 5545 5545 5544 5544 5543 5543 5542 5541 5540 5538 5536 5534 5533 5530 5528 5525 5522 5519 5515 5511 5508 5504 5500 5496 5493 5490 5487 5484 5480 5477 5474 5471 5467
5528 5530 5532 5533 5534 5534 5535 5535 5536 5536 5536 5536 5536 5535 5535 5534 5534 5533 5532 5530 5529 5527 5526 5524 5521 5519 5516 5512 5509 5506 5502 5498 5495 5492 5489 5486 5483 5480 5477 5474 5471 5467 5464
5520 5522 5523 5524 5525 5526 5527 5527 5527 5528 5528 5528 5527 5527 5527 5527 5526 5525 5524 5523 5522 5521 5519 5517 5515 5512 5510 5507 5503 5500 5497 5494 5491 5488 5485 5482 5479 5476 5473 5471 5468 5465 5462
5512 5513 5514 5516 5517 5518 5519 5519 5520 5520 5520 5520 5520 5520 5520 5520 5519 5519 5518 5517 5516 5514 5513 5511 5509 5506 5504 5501 5498 5495 5492 5489 5486 5484 5481 5478 5476 5473 5470 5467 5465 5462 5459
5504 5505 5507 5508 5509 5510 5511 5512 5513 5513 5513 5513 5513 5513 5513 5513 5513 5512 5512 5511 5509 5508 5506 5504 5503 5500 5498 5496 5493 5490 5487 5484 5482 5479 5477 5475 5472 5470 5467 5465 5462 5459 5457
5496 5498 5499 5500 5502 5503 5504 5505 5505 5506 5506 5507 5507 5507 5507 5507 5507 5506 5505 5505 5503 5502 5500 5499 5497 5495 5493 5490 5488 5485 5483 5480 5478 5475 5473 5471 5468 5466 5464 5462 5459 5457 5455
5489 5491 5492 5494 5495 5496 5497 5498 5499 5499 5500 5501 5501 5501 5501 5501 5501 5500 5499 5499 5497 5496 5494 5493 5491 5489 5487 5485 5483 5481 5478 5476 5473 5471 5469 5467 5465 5463 5461 5459 5457 5455 5453
5482 5484 5486 5487 5489 5490 5491 5492 5492 5493 5494 5495 5495 5495 5495 5495 5495 5494 5493 5493 5492 5490 5489 5487 5486 5484 5482 5480 5478 5476 5473 5471 5469 5467 5465 5463 5462 5460 5458 5456 5454 5453 5451
5476 5478 5479 5481 5483 5484 5485 5486 5487 5487 5488 5489 5489 5489 5489 5489 5488 5488 5487 5487 5486 5485 5483 5482 5480 5479 5477 5475 5473 5471 5469 5467 5464 5462 5461 5459 5458 5456 5455 5453 5452 5450 5449
5470 5472 5474 5475 5477 5478 5479 5480 5481 5481 5482 5482 5483 5483 5483 5483 5483 5482 5481 5481 5480 5479 5478 5476 5475 5473 5472 5470 5468 5466 5464 5462 5460 5458 5457 5455 5454 5453 5452 5451 5449 5448 5447